Location: Great Snoring
(52.8667°N, 0.8833°E)
Time: 05:44:10
(UTC+00:00)

Meteor 1-27 Rocket - Pass Details

Date: 19 May 2025
Orbit: 829 x 908 km, 81.3° (Epoch: 13 June)

Event Time Altitude Azimuth Distance (km) Brightness Sun altitude
Exits shadow 22:30:51 23° 165° (SSE) 1,742 4.7 -15.0°
Maximum altitude 22:34:16 55° 96° (E) 1,003 3.9 -15.2°
Drops below altitude 10° 22:39:41 10° 20° (NNE) 2,456 6.9 -15.4°
Sets 22:42:07 0° 16° (NNE) 3,390 7.8 -15.5°
